Buffalo, NY
on Wednesday, December 6, 2017

Wednesday
       
Previous Day Next Day
Daily Summary
 ActualAverageRecord
Temperature
Mean Temperature °F °C 33°F 1°C  
Max Temperature 37°F 3°C 39°F 4°C 69°F 20°C (1998)
Min Temperature 32°F 0°C 27°F -3°C 3°F -16°C (1886)
Degree Days
Heating Degree Days 30 32  
Month to date heating degree days 151 186  
Since 1 July heating degree days 1266 1519  
Cooling Degree Days 0 0  
Month to date cooling degree days 0 0  
Year to date cooling degree days 603 544  
Moisture
Dew Point 27°F -3°C   
Average Humidity 71    
Maximum Humidity 89    
Minimum Humidity 52    
Precipitation
Precipitation 0.24 in / 6.10 cm 0.12 in / 3.05 cm 1.15 in / 2.92 cm (1962)
Month to date precipitation 0.70 0.75  
Year to date precipitation 46.25 37.34  
Snow
Snow 1.70 in / 4.32 cm 0.70 in / 1.78 cm 8.10 in / 20.57 cm (2000)
Month to date snowfall 1.7 3.8  
Since 1 July snowfall 1.9 12.6  
Snow Depth T in / T cm   
Wind
Wind Speed 22 mph / 36 km/h   
Max Wind Speed 33 mph / 53 km/h   
Max Gust Speed 50 mph / 80 km/h   
Visibility 6 miles / 9 kilometers   
Events Fog , Snow   

Key: T is trace of precipitation, MM is missing value
Source: NWS Daily Summary
Time(EST)TemperatureDew PointHumidity Pressure Visibility Wind DirectionWind SpeedGust SpeedPrecipitationEvents Conditions
12:54 AM 34.0°F 1.1°C 19.9°F -6.7°C 56% 29.86 in / 1010.9 hPa 9.0 miles / 14.5 kilometers West 20.7 mph / 33.3 km/h 31.1 mph / 50.0 km/h 0.00 in / 0.0 cm Snow Light Snow
1:54 AM 35.1°F 1.7°C 23.0°F -5.0°C 61% 29.85 in / 1010.6 hPa 9.0 miles / 14.5 kilometers West 19.6 mph / 31.5 km/h 40.3 mph / 64.8 km/h 0.00 in / 0.0 cm Snow Light Snow
2:46 AM 34.0°F 1.1°C 27.0°F -2.8°C 75% 29.85 in / 1010.7 hPa 3.0 miles / 4.8 kilometers SW 28.8 mph / 46.3 km/h 41.4 mph / 66.7 km/h 0.00 in / 0.0 cm Snow Light Snow
2:54 AM 33.1°F 0.6°C 28.0°F -2.2°C 82% 29.88 in / 1011.6 hPa 2.0 miles / 3.2 kilometers SW 21.9 mph / 35.2 km/h 38.0 mph / 61.1 km/h 0.00 in / 0.0 cm Snow Light Snow
2:59 AM 33.1°F 0.6°C 28.0°F -2.2°C 82% 29.86 in / 1011.1 hPa 1.8 miles / 2.8 kilometers WSW 18.4 mph / 29.6 km/h 34.5 mph / 55.6 km/h 0.01 in / 0.3 cm Snow Light Snow
3:06 AM 32.0°F 0.0°C 28.9°F -1.7°C 88% 29.86 in / 1011.1 hPa 0.8 miles / 1.2 kilometers WSW 25.3 mph / 40.7 km/h 35.7 mph / 57.4 km/h 0.02 in / 0.5 cm Snow Light Snow
3:12 AM 32.0°F 0.0°C 30.0°F -1.1°C 92% 29.85 in / 1010.7 hPa 1.0 miles / 1.6 kilometers SW 24.2 mph / 38.9 km/h 38.0 mph / 61.1 km/h 0.03 in / 0.8 cm Snow Light Snow
3:19 AM 32.0°F 0.0°C 30.0°F -1.1°C 92% 29.85 in / 1010.7 hPa 3.0 miles / 4.8 kilometers SW 20.7 mph / 33.3 km/h 34.5 mph / 55.6 km/h 0.03 in / 0.8 cm Snow Light Snow
3:33 AM 34.0°F 1.1°C 23.0°F -5.0°C 64% 29.84 in / 1010.4 hPa 9.0 miles / 14.5 kilometers WSW 29.9 mph / 48.2 km/h 41.4 mph / 66.7 km/h 0.03 in / 0.8 cm Snow Light Snow
3:54 AM 35.1°F 1.7°C 23.0°F -5.0°C 61% 29.85 in / 1010.7 hPa 9.0 miles / 14.5 kilometers WSW 29.9 mph / 48.2 km/h 46.0 mph / 74.1 km/h 0.03 in / 0.8 cm Snow Light Snow
4:54 AM 35.1°F 1.7°C 21.9°F -5.6°C 59% 29.86 in / 1010.9 hPa 9.0 miles / 14.5 kilometers WSW 29.9 mph / 48.2 km/h 43.7 mph / 70.4 km/h 0.00 in / 0.0 cm Snow Light Snow
5:54 AM 35.1°F 1.7°C 21.9°F -5.6°C 59% 29.87 in / 1011.4 hPa 9.0 miles / 14.5 kilometers WSW 25.3 mph / 40.7 km/h 36.8 mph / 59.3 km/h 0.00 in / 0.0 cm   Mostly Cloudy
6:54 AM 33.1°F 0.6°C 21.9°F -5.6°C 64% 29.88 in / 1011.7 hPa 9.0 miles / 14.5 kilometers SW 21.9 mph / 35.2 km/h 35.7 mph / 57.4 km/h 0.00 in / 0.0 cm Snow Light Snow
7:54 AM 32.0°F 0.0°C 19.9°F -6.7°C 61% 29.89 in / 1012.0 hPa 10.0 miles / 16.1 kilometers SW 23.0 mph / 37.0 km/h 33.4 mph / 53.7 km/h 0.00 in / 0.0 cm   Mostly Cloudy
8:54 AM 32.0°F 0.0°C 18.0°F -7.8°C 56% 29.88 in / 1011.9 hPa 10.0 miles / 16.1 kilometers SW 23.0 mph / 37.0 km/h 39.1 mph / 63.0 km/h 0.00 in / 0.0 cm Snow Light Snow
9:54 AM 33.1°F 0.6°C 21.0°F -6.1°C 61% 29.88 in / 1011.8 hPa 10.0 miles / 16.1 kilometers SW 24.2 mph / 38.9 km/h 38.0 mph / 61.1 km/h 0.00 in / 0.0 cm Snow Light Snow
10:54 AM 34.0°F 1.1°C 23.0°F -5.0°C 64% 29.87 in / 1011.3 hPa 10.0 miles / 16.1 kilometers SW 26.5 mph / 42.6 km/h 40.3 mph / 64.8 km/h 0.00 in / 0.0 cm Snow Light Snow
11:54 AM 35.1°F 1.7°C 26.1°F -3.3°C 70% 29.84 in / 1010.5 hPa 9.0 miles / 14.5 kilometers SW 27.6 mph / 44.4 km/h 36.8 mph / 59.3 km/h 0.00 in / 0.0 cm Snow Light Snow
12:22 PM 36.0°F 2.2°C 28.0°F -2.2°C 73% 29.82 in / 1009.7 hPa 9.0 miles / 14.5 kilometers WSW 18.4 mph / 29.6 km/h 33.4 mph / 53.7 km/h 0.00 in / 0.0 cm Snow Light Snow
12:51 PM 35.6°F 2.0°C 28.4°F -2.0°C 75% 29.82 in / 1009.7 hPa 1.8 miles / 2.8 kilometers WSW 24.2 mph / 38.9 km/h 35.7 mph / 57.4 km/h 0.00 in / 0.0 cm Snow Light Snow
12:54 PM 34.0°F 1.1°C 28.9°F -1.7°C 82% 29.84 in / 1010.5 hPa 1.8 miles / 2.8 kilometers WSW 21.9 mph / 35.2 km/h 35.7 mph / 57.4 km/h 0.00 in / 0.0 cm Snow Light Snow
1:01 PM 34.0°F 1.1°C 30.0°F -1.1°C 85% 29.82 in / 1009.7 hPa 1.2 miles / 2.0 kilometers WSW 23.0 mph / 37.0 km/h 41.4 mph / 66.7 km/h 0.00 in / 0.0 cm Snow Light Snow
1:10 PM 33.1°F 0.6°C 30.9°F -0.6°C 92% 29.82 in / 1009.7 hPa 0.5 miles / 0.8 kilometers WSW 27.6 mph / 44.4 km/h 35.7 mph / 57.4 km/h 0.02 in / 0.5 cm Fog , Snow Snow
1:15 PM 33.1°F 0.6°C 30.9°F -0.6°C 92% 29.82 in / 1009.7 hPa 0.5 miles / 0.8 kilometers WSW 29.9 mph / 48.2 km/h 38.0 mph / 61.1 km/h 0.02 in / 0.5 cm Fog , Snow Snow
1:54 PM 33.1°F 0.6°C 32.0°F 0.0°C 96% 29.85 in / 1010.6 hPa 1.2 miles / 2.0 kilometers WSW 23.0 mph / 37.0 km/h 32.2 mph / 51.9 km/h 0.09 in / 2.3 cm Snow Light Snow
2:13 PM 34.0°F 1.1°C 30.9°F -0.6°C 89% 29.82 in / 1009.7 hPa 0.8 miles / 1.2 kilometers SW 23.0 mph / 37.0 km/h 39.1 mph / 63.0 km/h 0.01 in / 0.3 cm Snow Light Snow
2:25 PM 34.0°F 1.1°C 30.0°F -1.1°C 85% 29.81 in / 1009.4 hPa 5.0 miles / 8.0 kilometers SW 21.9 mph / 35.2 km/h 42.6 mph / 68.5 km/h 0.01 in / 0.3 cm Snow Light Snow
2:41 PM 33.1°F 0.6°C 30.9°F -0.6°C 92% 29.82 in / 1009.7 hPa 1.2 miles / 2.0 kilometers SW 19.6 mph / 31.5 km/h 33.4 mph / 53.7 km/h 0.01 in / 0.3 cm Snow Light Snow
2:52 PM 33.8°F 1.0°C 30.2°F -1.0°C 87% 29.82 in / 1009.7 hPa 2.0 miles / 3.2 kilometers WSW 21.9 mph / 35.2 km/h 33.4 mph / 53.7 km/h 0.02 in / 0.5 cm Snow Light Snow
2:54 PM 34.0°F 1.1°C 30.0°F -1.1°C 85% 29.84 in / 1010.4 hPa 4.0 miles / 6.4 kilometers WSW 20.7 mph / 33.3 km/h 33.4 mph / 53.7 km/h 0.02 in / 0.5 cm Snow Light Snow
3:38 PM 34.0°F 1.1°C 30.9°F -0.6°C 89% 29.82 in / 1009.7 hPa 2.0 miles / 3.2 kilometers WSW 17.3 mph / 27.8 km/h 27.6 mph / 44.4 km/h 0.00 in / 0.0 cm Snow Light Snow
3:50 PM 35.6°F 2.0°C 30.2°F -1.0°C 81% 29.82 in / 1009.7 hPa 5.0 miles / 8.0 kilometers WSW 18.4 mph / 29.6 km/h 34.5 mph / 55.6 km/h 0.00 in / 0.0 cm Snow Light Snow
3:54 PM 35.1°F 1.7°C 30.0°F -1.1°C 82% 29.85 in / 1010.7 hPa 5.0 miles / 8.0 kilometers WSW 23.0 mph / 37.0 km/h 34.5 mph / 55.6 km/h 0.00 in / 0.0 cm Snow Light Snow
4:17 PM 35.1°F 1.7°C 30.0°F -1.1°C 82% 29.81 in / 1009.4 hPa 2.5 miles / 4.0 kilometers WSW 18.4 mph / 29.6 km/h 40.3 mph / 64.8 km/h 0.00 in / 0.0 cm Snow Light Snow
4:26 PM 35.1°F 1.7°C 30.0°F -1.1°C 82% 29.81 in / 1009.4 hPa 5.0 miles / 8.0 kilometers SW 20.7 mph / 33.3 km/h 34.5 mph / 55.6 km/h 0.00 in / 0.0 cm Snow Light Snow
4:54 PM 35.1°F 1.7°C 32.0°F 0.0°C 89% 29.84 in / 1010.3 hPa 2.5 miles / 4.0 kilometers SW 21.9 mph / 35.2 km/h 36.8 mph / 59.3 km/h 0.00 in / 0.0 cm Snow Light Snow
5:06 PM 35.1°F 1.7°C 30.9°F -0.6°C 85% 29.81 in / 1009.4 hPa 6.0 miles / 9.7 kilometers SW 26.5 mph / 42.6 km/h 35.7 mph / 57.4 km/h 0.00 in / 0.0 cm Snow Light Snow
5:12 PM 34.0°F 1.1°C 30.9°F -0.6°C 89% 29.81 in / 1009.4 hPa 2.5 miles / 4.0 kilometers SW 24.2 mph / 38.9 km/h 40.3 mph / 64.8 km/h 0.00 in / 0.0 cm Snow Light Snow
5:17 PM 34.0°F 1.1°C 30.9°F -0.6°C 89% 29.82 in / 1009.7 hPa 1.8 miles / 2.8 kilometers SW 20.7 mph / 33.3 km/h 40.3 mph / 64.8 km/h 0.00 in / 0.0 cm Snow Light Snow
5:54 PM 35.1°F 1.7°C 30.9°F -0.6°C 85% 29.85 in / 1010.6 hPa 2.0 miles / 3.2 kilometers WSW 17.3 mph / 27.8 km/h 27.6 mph / 44.4 km/h 0.06 in / 1.5 cm Snow Light Snow
6:09 PM 35.1°F 1.7°C 30.9°F -0.6°C 85% 29.82 in / 1009.7 hPa 4.0 miles / 6.4 kilometers WSW 12.7 mph / 20.4 km/h - 0.03 in / 0.8 cm Snow Light Snow
6:11 PM 35.1°F 1.7°C 30.9°F -0.6°C 85% 29.82 in / 1009.7 hPa 5.0 miles / 8.0 kilometers WSW 16.1 mph / 25.9 km/h 26.5 mph / 42.6 km/h 0.03 in / 0.8 cm Snow Light Snow
6:21 PM 36.0°F 2.2°C 30.9°F -0.6°C 82% 29.82 in / 1009.7 hPa 7.0 miles / 11.3 kilometers West 11.5 mph / 18.5 km/h 27.6 mph / 44.4 km/h 0.04 in / 1.0 cm Snow Light Snow
6:44 PM 36.0°F 2.2°C 28.9°F -1.7°C 76% 29.83 in / 1010.0 hPa 8.0 miles / 12.9 kilometers West 16.1 mph / 25.9 km/h 25.3 mph / 40.7 km/h 0.04 in / 1.0 cm Snow Light Snow
6:54 PM 35.1°F 1.7°C 28.9°F -1.7°C 78% 29.86 in / 1010.9 hPa 9.0 miles / 14.5 kilometers West 20.7 mph / 33.3 km/h 28.8 mph / 46.3 km/h 0.04 in / 1.0 cm Snow Light Snow
7:54 PM 35.1°F 1.7°C 26.1°F -3.3°C 70% 29.87 in / 1011.3 hPa 10.0 miles / 16.1 kilometers West 16.1 mph / 25.9 km/h 25.3 mph / 40.7 km/h 0.00 in / 0.0 cm   Mostly Cloudy
8:54 PM 35.1°F 1.7°C 23.0°F -5.0°C 61% 29.87 in / 1011.5 hPa 10.0 miles / 16.1 kilometers West 15.0 mph / 24.1 km/h 28.8 mph / 46.3 km/h 0.00 in / 0.0 cm   Mostly Cloudy
9:54 PM 35.1°F 1.7°C 19.9°F -6.7°C 54% 29.88 in / 1011.9 hPa 10.0 miles / 16.1 kilometers West 19.6 mph / 31.5 km/h 29.9 mph / 48.2 km/h N/A   Partly Cloudy
10:54 PM 35.1°F 1.7°C 19.9°F -6.7°C 54% 29.90 in / 1012.5 hPa 10.0 miles / 16.1 kilometers West 19.6 mph / 31.5 km/h 27.6 mph / 44.4 km/h N/A   Mostly Cloudy
11:54 PM 34.0°F 1.1°C 19.9°F -6.7°C 56% 29.91 in / 1012.6 hPa 10.0 miles / 16.1 kilometers West 18.4 mph / 29.6 km/h 25.3 mph / 40.7 km/h N/A   Overcast